Location: Buchloe
(48.0161°N, 10.7316°E)
Time: 12:17:45
(UTC+02:00)

ISS - Pass Details

Date: 20 May 2018
Orbit: 402 x 407 km, 51.6° (Epoch: 24 May)

Event Time Altitude Azimuth Distance (km) Brightness Sun altitude
Rises 23:06:38 0° 232° (SW) 2,309 -0.1 -16.2°
Reaches altitude 10° 23:08:43 10° 228° (SW) 1,452 -1.1 -16.4°
Maximum altitude 23:11:54 54° 150° (SSE) 498 -3.8 -16.6°
Drops below altitude 10° 23:15:06 10° 72° (ENE) 1,457 -1.1 -16.9°
Sets 23:17:12 0° 68° (ENE) 2,319 0.0 -17.0°
